IRIDIUM 83 [P]

Last updated on Oct. 18, 2018, 12:08 a.m. UTC

1 25531U 98066E   18290.86722148  .01850966 -14331-5  12604-2 0  9991
2 25531  86.4066 145.9983 0417981 167.3063 193.9127 15.37723160 44288

Satellite is not in orbit.